User: anonymous   Login
Location: Castro Valley
(37.6940°N, 122.0850°W)
Time: 06:28:27
(UTC-08:00)
Language:

PANSAT - Orbit

View from above orbital plane
View from above orbital plane
View from above satellite
View from above satellite

Ground track
Ground track

The orbit data is extracted from the following two-line orbital elements,

1 25520U 98064B   16339.88523100  .00000984  00000-0  27056-4 0  9995
2 25520  28.4576 227.4606 0005325  11.3684 348.7030 15.28087065  4532
Epoch (UTC): 04 December 2016 21:14:43
Eccentricity: 0.0005325
inclination: 28.4576°
perigee height: 478 km
apogee height: 485 km
right ascension of ascending node: 227.4606°
argument of perigee: 11.3684°
revolutions per day: 15.28087065
mean anomaly at epoch: 348.7030°
orbit number at epoch: 453

The dashed part of the orbit path shows where the satellite is in the earth's shadow,  

DLR